Charlottesville, VA

12:14 PM EDT on April 23, 2017 (GMT -0400)
Charlottesville-Albemarle

Weather History for KCHO - January, 2011

Change the Weather History Date:

Sunday, January 23, 2011

  Actual Average Record
Temperature  
Mean Temperature 25 °F 35 °F  
Max Temperature 37 °F 45 °F 69 °F (1933)
Min Temperature 12 °F 26 °F -2 °F (1936)
Degree Days  
Heating Degree Days 40 30  
Month to date heating degree days 706 690  
Since 1 July heating degree days 2398 2426  
Cooling Degree Days 0 0  
Month to date cooling degree days 0 0  
Year to date cooling degree days 0 0  
Moisture  
Dew Point 5 °F    
Average Humidity 51    
Maximum Humidity 76    
Minimum Humidity 26    
Precipitation  
Precipitation 0.00 in 0.09 in 1.21 in (2017)
Month to date precipitation 0.08 2.06  
Year to date precipitation 0.08 2.06  
Sea Level Pressure  
Sea Level Pressure 30.13 in    
Wind  
Wind Speed 4 mph (NNE)    
Max Wind Speed 12 mph    
Max Gust Speed 15 mph    
Visibility 10 miles    
Events      
T = Trace of Precipitation, MM = Missing Value Source: NWS Daily Summary

Daily Weather History Graph

Daily Weather History Graph

Search for Another Location

Airport or City:

Trip Planner

Search our weather history database for the weather conditions in past years. The results will help you decide how hot, cold, wet, or windy it might be!

Date:

Astronomy

Jan. 23, 2011 Rise Set
Actual Time 7:25 AM EST 5:26 PM EST
Civil Twilight 6:56 AM EST 5:54 PM EST
Nautical Twilight 6:24 AM EST 6:26 PM EST
Astronomical Twilight 5:53 AM EST 6:58 PM EST
Moon 10:19 PM EST 9:26 AM EST
Length of Visible Light 10h 57m
Length of Day
10h 00m
Waning Gibbous, 81% of the Moon is Illuminated
Jan 23
Waning Gibbous
Jan 26
Last Quarter
Feb 2
New
Feb 11
First Quarter
Feb 18
Full

Hourly Weather History & Observations

Time (EST) Temp. Windchill Dew Point Humidity Pressure Visibility Wind Dir Wind Speed Gust Speed Precip Events Conditions
12:53 AM 16.0 °F 10.4 °F 6.1 °F 65% 29.94 in 10.0 mi Variable 3.5 mph - N/A   Clear
1:53 AM 12.9 °F - 5.0 °F 71% 29.94 in 10.0 mi Calm Calm - N/A   Clear
2:53 AM 12.0 °F - 6.1 °F 77% 29.95 in 10.0 mi Calm Calm - N/A   Clear
3:53 AM 16.0 °F - 5.0 °F 62% 29.96 in 10.0 mi Calm Calm - N/A   Clear
4:53 AM 14.0 °F - 7.0 °F 74% 29.97 in 9.0 mi Calm Calm - N/A   Clear
5:53 AM 14.0 °F - 6.1 °F 71% 29.99 in 9.0 mi Calm Calm - N/A   Clear
6:53 AM 14.0 °F - 7.0 °F 74% 30.01 in 10.0 mi Calm Calm - N/A   Clear
7:53 AM 18.0 °F - 9.0 °F 68% 30.04 in 10.0 mi Calm Calm - N/A   Clear
8:53 AM 19.0 °F - 9.0 °F 65% 30.08 in 9.0 mi Calm Calm - N/A   Clear
9:53 AM 26.1 °F 21.9 °F 12.9 °F 58% 30.11 in 10.0 mi Variable 3.5 mph - N/A   Clear
10:53 AM 33.1 °F 26.9 °F 10.0 °F 38% 30.13 in 10.0 mi Variable 6.9 mph - N/A   Scattered Clouds
11:53 AM 34.0 °F 27.2 °F 8.1 °F 34% 30.13 in 10.0 mi West 8.1 mph - N/A   Clear
12:53 PM 35.1 °F 30.1 °F 6.1 °F 30% 30.12 in 10.0 mi Variable 5.8 mph - N/A   Clear
1:53 PM 36.0 °F 33.3 °F 5.0 °F 27% 30.12 in 10.0 mi Variable 3.5 mph - N/A   Clear
2:53 PM 35.1 °F 29.3 °F 3.0 °F 26% 30.14 in 10.0 mi SW 6.9 mph - N/A   Clear
3:53 PM 36.0 °F 28.0 °F 3.0 °F 25% 30.16 in 10.0 mi NNE 11.5 mph - N/A   Clear
4:53 PM 32.0 °F 23.0 °F 1.9 °F 28% 30.19 in 10.0 mi NNE 11.5 mph - N/A   Clear
5:53 PM 28.9 °F 19.2 °F 1.0 °F 30% 30.22 in 10.0 mi NNE 11.5 mph - N/A   Clear
6:53 PM 28.0 °F 18.1 °F -0.9 °F 29% 30.25 in 10.0 mi North 11.5 mph - N/A   Clear
7:53 PM 26.1 °F - -0.9 °F 31% 30.27 in 10.0 mi Calm Calm - N/A   Clear
8:53 PM 23.0 °F - -0.0 °F 37% 30.30 in 10.0 mi Calm Calm - N/A   Clear
9:53 PM 23.0 °F 18.4 °F 1.0 °F 39% 30.32 in 10.0 mi ESE 3.5 mph - N/A   Clear
10:53 PM 19.0 °F 13.9 °F 1.9 °F 47% 30.33 in 10.0 mi ENE 3.5 mph - N/A   Clear
11:53 PM 18.0 °F - 1.0 °F 48% 30.35 in 10.0 mi Calm Calm - N/A   Clear